Language selection

My Weather Profile Weather Topics  | 

Queen Charlotte Sound: Past 24 Hour Conditions

 

Prince Rupert Airport

12:00 AM PDT 15 September 2019
Disclaimer

This table is a summary of hourly weather conditions for the past 24 hours.
Please note that these observations might not always be representative of weather conditions over their associated marine area.

Date / Time
(PDT)
Wind(knots) Conditions Visibility(km) Pressure(kPa) Air tempC) Relative humidity(%) Dew pointC)
15 September 2019
0:00 ENE 3 Cloudy 16 100.5 11 97 10
14 September 2019
23:00 ENE 3 Cloudy 16 100.5 11 96 10
22:00 NE 2 Cloudy 16 100.5 11 96 10
21:00 ENE 3 Cloudy 16 100.4 11 95 11
20:00 ENE 3 Cloudy 16 100.4 12 91 10
19:00 E 5 Partly Cloudy 16 100.4 12 92 11
18:00 NE 4 Cloudy 16 100.4 13 90 12
17:00 SSE 5 Light Rain 16 100.4 12 92 11
16:00 SSE 6 Rain 5 100.5 11 93 10
15:00 S 6 Mostly Cloudy 16 100.4 15 70 10
14:00 S 4 Partly Cloudy 16 100.4 15 73 10
13:00 SSE 5 Mainly Sunny 16 100.4 15 78 11
12:00 SSE 6 Mainly Sunny 16 100.5 14 86 11
11:00 SE 8 Mostly Cloudy 16 100.5 13 85 11
10:00 ESE 3 Sunny 16 100.5 12 96 11
9:00 ENE 3 Mostly Cloudy 11 100.5 10 99 10
8:00 E 4 Fog 0.6 100.4 10 99 10
7:00 SSE 3 Mist 10 100.4 10 99 10
6:00 ENE 2 Mostly Cloudy 11 100.5 10 98 10
5:00 ESE 4 Mostly Cloudy 16 100.5 11 98 11
4:00 SSE 3 Mostly Cloudy 15 100.5 11 99 11
3:00 ESE 3 Mostly Cloudy 16 100.5 11 98 11
2:00 SSE 3 Cloudy 16 100.5 11 98 11
1:00 calm Mostly Cloudy 16 100.5 11 98 11
0:00 calm Mostly Cloudy 16 100.5 12 98 12

Zoom-in to make a selection

Map of Pacific - North Coast marine weather areas Middle Nomad - 46004 South Nomad - 46036 Dixon Entrance Central - 46145 South Moresby - 46147 Nanakwa Shoal - 46181 North Hecate Strait - 46183 North Nomad - 46184 South Hecate Strait - 46185 West Sea Otter - 46204 West Dixon Entrance - 46205 East Dellwood - 46207 West Moresby - 46208 Sartine Island Cape St.James Kindakun Rocks Langara Island Masset Municipal Airport Rose Spit Sandspit Airport Bella Bella Airport Bella Coola Airport Bonilla Island Cathedral Point Cumshewa Island Grey Islet Holland Rock Lucy Islands Lightstation Prince Rupert Airport
Legend:
buoy Buoy
land station Land Station

Pacific - North Coast Area

Another Region

What we are doing

Date modified: